Location: UBC Liquid-Mirror Observatory
(49.2876°N, 122.5728°W)
Time: 02:33:44
(UTC-08:00)

Amateur Radio Satellites - All Passes

Search period start: 07 December 2016 02:03
Search period end: 08 December 2016 02:03
Location: UBC Liquid-Mirror Observatory, 49.2876°N, 122.5728°W

Satellite Date Start Highest point End Downlink Frequencies (MHz)
Time Altitude Azimuth
AUBIESAT-1 07 Dec 02:12:00 02:15:59 40° 257° (WSW) 02:20:14 437.475
ITUPSAT 1 07 Dec 02:15:48 02:20:30 56° 259° (W) 02:25:14 437.325
ITAMSAT 1 07 Dec 02:22:03 02:25:57 21° 91° (E) 02:29:49 435.822/435.867
M-CUBED/EXP-1 PRIME 07 Dec 02:25:53 02:29:23 25° 262° (W) 02:33:07 437.505
PHONESAT 2.4 07 Dec 02:29:03 02:30:22 13° 182° (S) 02:31:42 2401.200-2431.200
O/OREOS (USA 219) 07 Dec 02:39:21 02:42:35 20° 258° (WSW) 02:45:48 437.305
GONETS M04 07 Dec 02:42:35 02:50:08 32° 298° (WNW) 02:57:43
MOZHAYETS 4 07 Dec 02:43:45 02:48:20 75° 74° (ENE) 02:52:55
CUBESAT XI-V 07 Dec 02:51:15 02:54:17 18° 59° (ENE) 02:57:20 437.345
SO-50 07 Dec 02:57:42 03:01:47 30° 35° (NE) 03:05:46 436.795
KKS-1 07 Dec 03:05:55 03:10:19 58° 71° (ENE) 03:14:45 437.445
STARS 07 Dec 03:09:15 03:13:12 33° 65° (ENE) 03:17:11 437.465
SWISSCUBE 07 Dec 03:24:10 03:26:32 14° 272° (W) 03:28:55 437.505
BEESAT 07 Dec 03:27:59 03:30:26 14° 272° (W) 03:32:54 436.000
Cosmos 2499 07 Dec 03:30:50 03:36:26 18° 311° (NW) 03:42:07 435.465 / 435.565
Oscar 19 07 Dec 03:30:58 03:34:34 19° 303° (WNW) 03:38:10 437.125/150
AO-7 07 Dec 03:32:09 03:40:15 49° 101° (E) 03:48:16 29.400- 29.500
AO-85 07 Dec 03:34:30 03:38:50 35° 320° (NW) 03:42:53 145.980
Gurwin Techsat 1B 07 Dec 03:35:30 03:40:05 30° 298° (WNW) 03:44:38 435.225
ITAMSAT 1 07 Dec 04:00:43 04:05:51 62° 290° (WNW) 04:10:57 435.822/435.867
BEESAT 3 07 Dec 04:02:00 04:04:02 14° 112° (ESE) 04:06:05 437.485
BRITE-PL 07 Dec 04:04:28 04:07:49 16° 87° (E) 04:11:15 437.365/2234.400
YUBILEINY 07 Dec 04:15:04 04:21:59 25° 56° (ENE) 04:28:53 435.215
MOZHAYETS 4 07 Dec 04:23:30 04:26:02 15° 272° (W) 04:28:35
CUBESAT XI-V 07 Dec 04:26:36 04:31:10 69° 258° (WSW) 04:35:47 437.345
BEESAT 2 07 Dec 04:33:40 04:35:44 14° 111° (ESE) 04:37:49 435.950
SO-50 07 Dec 04:38:03 04:42:31 55° 237° (WSW) 04:46:53 436.795
Cosmos 2504 07 Dec 04:38:28 04:44:15 18° 50° (NE) 04:49:52 435.465 / 435.565
KKS-1 07 Dec 04:44:11 04:47:15 18° 269° (W) 04:50:21 437.445
STARS 07 Dec 04:45:34 04:49:32 32° 264° (W) 04:53:32 437.465
Cosmos 2491 07 Dec 04:53:51 04:57:57 14° 70° (ENE) 05:02:03 435.465 / 435.565
GOMX 1 07 Dec 05:11:33 05:16:13 28° 92° (E) 05:20:52 467.674
DOVE 4 07 Dec 05:17:10 05:19:59 14° 85° (E) 05:22:45 437.250
AO-85 07 Dec 05:18:27 05:20:28 13° 343° (NNW) 05:22:27 145.980
STRAND 1 07 Dec 05:18:58 05:23:02 24° 60° (ENE) 05:27:07 437.568
AO-7 07 Dec 05:25:07 05:33:03 49° 302° (WNW) 05:40:58 29.400- 29.500
BEESAT 3 07 Dec 05:37:12 05:41:07 77° 311° (NW) 05:45:06 437.485
AIST 1 07 Dec 05:37:20 05:40:44 21° 67° (ENE) 05:44:07
BRITE-PL 07 Dec 05:41:28 05:46:53 88° 285° (WNW) 05:52:33 437.365/2234.400
ITAMSAT 1 07 Dec 05:42:23 05:44:20 12° 310° (NW) 05:46:18 435.822/435.867
HORYU 2 07 Dec 05:43:22 05:47:50 73° 103° (ESE) 05:52:15 437.375
CUTE-I 07 Dec 05:43:40 05:48:07 26° 93° (E) 05:52:31 437.470
LilacSat-2 07 Dec 05:55:22 05:58:45 30° 96° (E) 06:02:05 437.200
NOAA 15 07 Dec 06:02:06 06:07:03 39° 98° (E) 06:11:59 137.62
NOAA 18 07 Dec 06:03:24 06:07:56 25° 93° (E) 06:12:25 137.9125
BEESAT 2 07 Dec 06:09:01 06:12:59 77° 311° (NW) 06:17:00 435.950
Cubesat XI-IV 07 Dec 06:09:42 06:14:46 41° 98° (E) 06:19:46 437.490
YUBILEINY 07 Dec 06:11:18 06:20:12 87° 83° (E) 06:29:04 435.215
CINEMA 3 07 Dec 06:26:27 06:29:17 15° 86° (E) 06:32:02 145.822/145.860
HO-68 07 Dec 06:29:12 06:33:31 16° 85° (E) 06:37:49 435.675
Cosmos 2504 07 Dec 06:30:53 06:39:44 65° 75° (ENE) 06:48:05 435.465 / 435.565
CANX-2 07 Dec 06:32:21 06:32:37 10° 86° (E) 06:32:55 2200.000
RS-15 07 Dec 06:33:39 06:44:10 40° 107° (ESE) 06:55:03 29.354- 29.394
Cosmos 2491 07 Dec 06:44:20 06:52:56 63° 92° (E) 07:01:31 435.465 / 435.565
PRISM 07 Dec 06:47:05 06:48:13 11° 55° (NE) 06:49:23 437.425
GOMX 1 07 Dec 06:49:13 06:54:31 53° 290° (WNW) 06:59:50 467.674
DOVE 4 07 Dec 06:53:05 06:58:26 88° 106° (ESE) 07:03:38 437.250
SEEDS 07 Dec 06:54:37 06:55:20 10° 86° (E) 06:56:04 437.485
STRAND 1 07 Dec 06:56:48 07:01:52 58° 259° (W) 07:06:57 437.568
AO-85 07 Dec 07:01:57 07:02:47 10° 8° (N) 07:03:37 145.980
AIST 2 07 Dec 07:11:29 07:14:11 17° 113° (ESE) 07:16:55 435.215
AIST 1 07 Dec 07:14:21 07:18:35 46° 267° (W) 07:22:48
BEESAT 3 07 Dec 07:16:44 07:19:24 17° 331° (NNW) 07:22:06 437.485
AO-7 07 Dec 07:19:13 07:23:55 17° 325° (NW) 07:28:39 29.400- 29.500
HORYU 2 07 Dec 07:21:07 07:23:52 16° 302° (WNW) 07:26:36 437.375
BRITE-PL 07 Dec 07:21:15 07:24:43 18° 303° (WNW) 07:28:16 437.365/2234.400
CUTE-I 07 Dec 07:23:16 07:28:27 52° 292° (WNW) 07:33:36 437.470
LilacSat-2 07 Dec 07:29:49 07:32:56 25° 294° (WNW) 07:36:04 437.200
NOAA 15 07 Dec 07:42:01 07:46:47 35° 296° (WNW) 07:51:32 137.62
UNISAT 6 07 Dec 07:43:11 07:45:02 12° 55° (NE) 07:46:51 437.425
NOAA 18 07 Dec 07:43:31 07:48:58 58° 292° (WNW) 07:54:22 137.9125
CUTE 1.7 + AOD 2 07 Dec 07:46:38 07:50:45 49° 99° (E) 07:54:52 437.475
BEESAT 2 07 Dec 07:48:41 07:51:26 17° 331° (NNW) 07:54:11 435.950
Cubesat XI-IV 07 Dec 07:49:58 07:54:45 34° 297° (WNW) 07:59:30 437.490
ZACube-1 07 Dec 07:54:45 07:55:54 11° 86° (E) 07:57:02 437.345
FUNcube-1 07 Dec 08:01:16 08:02:50 12° 86° (E) 08:04:26 145.935
CINEMA 3 07 Dec 08:02:09 08:07:02 75° 287° (WNW) 08:11:40 145.822/145.860
AAUSAT CUBESAT 2 07 Dec 08:03:55 08:07:32 28° 95° (E) 08:11:09 437.432
CANX-2 07 Dec 08:04:54 08:09:09 88° 104° (ESE) 08:13:23 2200.000
YUBILEINY 07 Dec 08:09:20 08:15:52 24° 283° (WNW) 08:22:25 435.215
TIGRISAT 07 Dec 08:10:58 08:14:18 20° 60° (ENE) 08:17:35 435.000
CUBEBUG 2 07 Dec 08:11:10 08:15:20 38° 97° (E) 08:19:21 437.445
ANTELSAT 07 Dec 08:12:37 08:16:06 21° 61° (ENE) 08:19:32 437.575/2403.000
HO-68 07 Dec 08:15:11 08:22:26 77° 106° (ESE) 08:29:39 435.675
PRISM 07 Dec 08:18:45 08:22:48 81° 76° (ENE) 08:26:56 437.425
Cosmos 2504 07 Dec 08:24:57 08:32:34 34° 278° (W) 08:39:53 435.465 / 435.565
SEEDS 07 Dec 08:27:28 08:31:40 89° 287° (WNW) 08:35:52 437.485
Oscar 11 07 Dec 08:28:42 08:32:06 22° 92° (E) 08:35:28 145.826/435.025
GOMX 1 07 Dec 08:30:03 08:31:27 11° 310° (NW) 08:32:51 467.674
DOVE 4 07 Dec 08:31:56 08:35:24 18° 303° (WNW) 08:38:50 437.250
COMPASS 1 07 Dec 08:35:14 08:39:24 76° 101° (ESE) 08:43:34 437.405
AO-85 07 Dec 08:41:25 08:44:44 23° 33° (NNE) 08:47:57 145.980
Cosmos 2491 07 Dec 08:42:26 08:50:21 36° 295° (WNW) 08:58:16 435.465 / 435.565
RS-15 07 Dec 08:43:48 08:55:46 78° 313° (NW) 09:08:14 29.354- 29.394
AIST 2 07 Dec 08:48:05 08:52:12 68° 312° (NW) 08:56:23 435.215
UWE-3 07 Dec 08:50:38 08:54:58 63° 101° (E) 08:59:08 435.000/436.395/437.385
DELFI C3 07 Dec 08:51:27 08:53:34 14° 89° (E) 08:55:41 145.870
GONETS M04 07 Dec 08:54:16 08:57:23 12° 41° (NE) 09:00:28
CUTE-I 07 Dec 09:06:16 09:07:22 11° 312° (NW) 09:08:29 437.470
HUMSAT D 07 Dec 09:09:53 09:11:28 12° 87° (E) 09:13:02 437.325/437.525
UNISAT 6 07 Dec 09:16:18 09:20:58 75° 74° (ENE) 09:25:36 437.425
CUTE 1.7 + AOD 2 07 Dec 09:23:12 09:26:17 20° 298° (WNW) 09:29:23 437.475
NOAA 18 07 Dec 09:26:20 09:28:32 12° 312° (NW) 09:30:43 137.9125
Cosmos 2499 07 Dec 09:26:54 09:32:44 19° 51° (NE) 09:38:21 435.465 / 435.565
ZACube-1 07 Dec 09:28:34 09:32:51 85° 285° (WNW) 09:37:01 437.345
JAS-2 07 Dec 09:29:00 09:34:15 31° 63° (ENE) 09:39:04 435.910
CUSAT 1 07 Dec 09:34:15 09:37:10 89° 259° (W) 09:39:48 437.405
FUNcube-1 07 Dec 09:35:27 09:39:42 79° 287° (WNW) 09:43:51 145.935
NANOSAT C BR1 07 Dec 09:37:09 09:39:53 17° 60° (ENE) 09:42:39 145.865
AAUSAT CUBESAT 2 07 Dec 09:39:20 09:43:01 31° 293° (WNW) 09:46:41 437.432
CINEMA 3 07 Dec 09:41:09 09:43:17 13° 306° (NW) 09:45:22 145.822/145.860
CANX-2 07 Dec 09:42:31 09:44:22 13° 303° (WNW) 09:46:15 2200.000
QB50P2 07 Dec 09:43:48 09:47:04 22° 62° (ENE) 09:50:20 145.880/145.840
POLYITAN 1 07 Dec 09:44:22 09:47:34 21° 62° (ENE) 09:50:47 437.675
TIGRISAT 07 Dec 09:45:55 09:50:34 63° 259° (W) 09:55:10 435.000
ANTELSAT 07 Dec 09:47:49 09:52:26 58° 259° (W) 09:57:01 437.575/2403.000
CUBEBUG 2 07 Dec 09:48:06 09:51:48 26° 296° (WNW) 09:55:23 437.445
QB50P1 07 Dec 09:56:29 10:00:02 26° 64° (ENE) 10:03:37 145.935-145.965
PCSat 07 Dec 09:56:43 09:58:31 12° 102° (ESE) 10:00:19 145.827
PRISM 07 Dec 09:57:26 09:58:41 11° 272° (W) 09:59:56 437.425
DUCHIFAT 1 07 Dec 09:57:46 10:01:10 24° 63° (ENE) 10:04:35 145.980
HO-68 07 Dec 10:03:38 10:09:33 29° 307° (NW) 10:15:28 435.675
Oscar 11 07 Dec 10:04:20 10:08:26 43° 291° (WNW) 10:12:30 145.826/435.025
SEEDS 07 Dec 10:05:02 10:06:43 12° 303° (WNW) 10:08:24 437.485
COMPASS 1 07 Dec 10:12:13 10:14:25 14° 301° (WNW) 10:16:36 437.405
POPSAT HIP 1 07 Dec 10:17:36 10:21:36 39° 69° (ENE) 10:25:38 437.405
AO-85 07 Dec 10:21:32 10:25:32 63° 234° (SW) 10:29:22 145.980
DELFI C3 07 Dec 10:24:52 10:28:48 62° 287° (WNW) 10:32:44 145.870
UWE-3 07 Dec 10:28:08 10:30:57 17° 301° (WNW) 10:33:43 435.000/436.395/437.385
AIST 2 07 Dec 10:28:39 10:31:27 17° 333° (NNW) 10:34:16 435.215
DANDE 07 Dec 10:33:25 10:37:35 74° 282° (WNW) 10:40:48 436.750
BEESAT 3 07 Dec 10:36:28 10:38:05 12° 20° (NNE) 10:39:39 437.485
HUMSAT D 07 Dec 10:43:31 10:47:37 75° 287° (WNW) 10:51:40 437.325/437.525
ESTCUBE 1 07 Dec 10:45:35 10:48:55 20° 91° (E) 10:52:15 437.505/2401.250
BUGSAT 1 07 Dec 10:48:12 10:51:56 30° 66° (ENE) 10:55:41 437.445
GONETS M04 07 Dec 10:48:50 10:57:07 45° 69° (ENE) 11:05:24
UNISAT 6 07 Dec 10:55:29 10:58:11 15° 272° (W) 11:00:54 437.425
RS-15 07 Dec 10:59:05 11:10:28 42° 344° (NNW) 11:22:06 29.354- 29.394
AO-7 07 Dec 11:01:01 11:02:00 10° 21° (NNE) 11:02:59 29.400- 29.500
ZACube-1 07 Dec 11:06:51 11:08:26 12° 304° (NW) 11:09:59 437.345
CUBEBUG 1 07 Dec 11:07:50 11:11:12 21° 92° (E) 11:14:32 437.445
BEESAT 2 07 Dec 11:08:44 11:10:27 12° 20° (NNE) 11:12:08 435.950
NANOSAT C BR1 07 Dec 11:10:54 11:15:09 65° 258° (WSW) 11:19:25 145.865
JAS-2 07 Dec 11:13:06 11:19:12 51° 260° (W) 11:24:42 435.910
50 SAT 07 Dec 11:13:57 11:14:43 11° 89° (E) 11:15:31 437.505
FUNcube-1 07 Dec 11:14:03 11:15:11 11° 305° (NW) 11:16:19 145.935
QB50P2 07 Dec 11:18:26 11:22:35 48° 261° (W) 11:26:46 145.880/145.840
POLYITAN 1 07 Dec 11:18:53 11:23:03 50° 260° (W) 11:27:16 437.675
Cosmos 2499 07 Dec 11:19:07 11:27:50 69° 76° (ENE) 11:35:54 435.465 / 435.565
VELOX 1 07 Dec 11:22:37 11:25:55 20° 92° (E) 11:29:12 145.980
QB50P1 07 Dec 11:31:40 11:35:40 38° 263° (W) 11:39:41 145.935-145.965
DX 1 07 Dec 11:31:43 11:33:53 13° 88° (E) 11:36:02 434.975-435.025
DUCHIFAT 1 07 Dec 11:32:35 11:36:39 42° 262° (W) 11:40:44 145.980
Oscar 19 07 Dec 11:33:30 11:37:49 28° 61° (ENE) 11:42:09 437.125/150
PCSat 07 Dec 11:35:32 11:40:55 69° 121° (ESE) 11:46:20 145.827
UKube-1 07 Dec 11:36:38 11:37:49 11° 87° (E) 11:39:01 .
Gurwin Techsat 1B 07 Dec 11:42:35 11:46:24 20° 57° (ENE) 11:50:12 435.225
SPROUT 07 Dec 11:44:17 11:47:39 22° 92° (E) 11:50:59 437.525
POPSAT HIP 1 07 Dec 11:54:00 11:57:31 24° 266° (W) 12:01:03 437.405
BEESAT 3 07 Dec 12:13:03 12:16:47 37° 42° (NE) 12:20:31 437.485
AISAT 07 Dec 12:21:23 12:25:53 74° 103° (ESE) 12:30:21 437.250
ESTCUBE 1 07 Dec 12:21:38 12:26:02 53° 290° (WNW) 12:30:26 437.505/2401.250
BUGSAT 1 07 Dec 12:23:27 12:27:16 31° 264° (W) 12:31:06 437.445
CUBEBUG 1 07 Dec 12:43:26 12:47:45 50° 290° (WNW) 12:52:02 437.445
50 SAT 07 Dec 12:44:54 12:48:27 67° 286° (WNW) 12:51:59 437.505
AO-7 07 Dec 12:45:20 12:51:58 28° 47° (NE) 12:58:39 29.400- 29.500
BEESAT 2 07 Dec 12:45:32 12:49:20 37° 42° (NE) 12:53:07 435.950
GONETS M04 07 Dec 12:45:49 12:54:04 50° 272° (W) 13:02:21
VELOX 1 07 Dec 12:58:19 13:02:41 53° 290° (WNW) 13:07:01 145.980
TISAT 1 07 Dec 13:00:29 13:03:55 23° 93° (E) 13:07:18 437.305
DX 1 07 Dec 13:06:12 13:10:37 77° 286° (WNW) 13:15:00 434.975-435.025
UKube-1 07 Dec 13:10:09 13:14:31 90° 108° (ESE) 13:18:51 .
Oscar 19 07 Dec 13:11:57 13:16:54 49° 260° (W) 13:21:56 437.125/150
Cosmos 2499 07 Dec 13:13:02 13:20:16 31° 279° (W) 13:27:07 435.465 / 435.565
RS-15 07 Dec 13:15:09 13:26:46 43° 17° (NNE) 13:38:17 29.354- 29.394
SPROUT 07 Dec 13:19:41 13:23:48 44° 290° (WNW) 13:27:51 437.525
PCSat 07 Dec 13:20:04 13:24:47 29° 322° (NW) 13:29:31 145.827
Gurwin Techsat 1B 07 Dec 13:20:28 13:25:47 76° 256° (WSW) 13:31:09 435.225
SWISSCUBE 07 Dec 13:40:25 13:43:18 16° 89° (E) 13:46:10 437.505
ITAMSAT 1 07 Dec 13:43:42 13:48:42 49° 67° (ENE) 13:53:43 435.822/435.867
BEESAT 07 Dec 13:44:20 13:47:10 15° 89° (E) 13:49:59 436.000
AUBIESAT-1 07 Dec 13:48:27 13:49:47 11° 91° (E) 13:51:06 437.475
AIST 2 07 Dec 13:49:35 13:51:54 14° 22° (NNE) 13:54:15 435.215
BEESAT 3 07 Dec 13:50:48 13:54:23 31° 241° (WSW) 13:57:55 437.485
AISAT 07 Dec 13:59:02 14:01:49 16° 302° (WNW) 14:04:35 437.250
M-CUBED/EXP-1 PRIME 07 Dec 14:00:35 14:03:50 18° 95° (E) 14:07:01 437.505
ITUPSAT 1 07 Dec 14:12:15 14:16:17 27° 94° (E) 14:20:18 437.325
BEESAT 2 07 Dec 14:23:28 14:27:05 32° 241° (WSW) 14:30:39 435.950
AO-7 07 Dec 14:35:29 14:43:49 89° 69° (ENE) 14:52:14 29.400- 29.500
TISAT 1 07 Dec 14:35:43 14:39:42 40° 292° (WNW) 14:43:38 437.305
MOZHAYETS 4 07 Dec 14:36:08 14:38:16 13° 87° (E) 14:40:23
DX 1 07 Dec 14:44:29 14:46:03 12° 306° (NW) 14:47:37 434.975-435.025
UKube-1 07 Dec 14:47:50 14:49:54 13° 304° (NW) 14:51:59 .
Cosmos 2491 07 Dec 14:55:53 14:57:24 10° 38° (NE) 14:58:55 435.465 / 435.565
Gurwin Techsat 1B 07 Dec 15:04:43 15:06:39 12° 275° (W) 15:08:37 435.225
PCSat 07 Dec 15:07:31 15:10:03 13° 348° (NNW) 15:12:34 145.827
HORYU 2 07 Dec 15:10:43 15:13:33 17° 58° (ENE) 15:16:22 437.375
O/OREOS (USA 219) 07 Dec 15:16:02 15:19:54 28° 105° (ESE) 15:23:45 437.305
SWISSCUBE 07 Dec 15:16:53 15:21:38 73° 288° (WNW) 15:26:22 437.505
BRITE-PL 07 Dec 15:19:47 15:23:15 23° 60° (ENE) 15:26:57 437.365/2234.400
AUBIESAT-1 07 Dec 15:20:17 15:24:56 81° 109° (ESE) 15:29:23 437.475
BEESAT 07 Dec 15:20:43 15:25:30 75° 288° (WNW) 15:30:14 436.000
ITAMSAT 1 07 Dec 15:24:00 15:28:24 27° 266° (W) 15:32:50 435.822/435.867
AIST 2 07 Dec 15:27:18 15:31:24 46° 44° (NE) 15:35:29 435.215
RS-15 07 Dec 15:28:54 15:41:24 80° 47° (NE) 15:53:33 29.354- 29.394
CUTE-I 07 Dec 15:33:21 15:35:35 13° 50° (NE) 15:37:49 437.470
M-CUBED/EXP-1 PRIME 07 Dec 15:34:03 15:38:43 65° 294° (WNW) 15:43:14 437.505
NOAA 15 07 Dec 15:49:06 15:52:27 17° 55° (NE) 15:55:49 137.62
ITUPSAT 1 07 Dec 15:49:47 15:54:17 43° 293° (WNW) 15:58:46 437.325
NOAA 18 07 Dec 15:56:27 15:59:20 14° 50° (NE) 16:02:13 137.9125
Cubesat XI-IV 07 Dec 15:58:06 16:01:46 19° 55° (NE) 16:05:26 437.490
ISS 07 Dec 15:59:45 16:02:32 26° 144° (SE) 16:05:20 145.825
MOZHAYETS 4 07 Dec 16:11:28 16:16:03 82° 287° (WNW) 16:20:37
CUBESAT XI-V 07 Dec 16:19:17 16:22:56 22° 92° (E) 16:26:35 437.345
GOMX 1 07 Dec 16:23:40 16:28:02 39° 67° (ENE) 16:32:44 467.674
DOVE 4 07 Dec 16:26:02 16:29:49 22° 59° (ENE) 16:33:44 437.250
KKS-1 07 Dec 16:28:56 16:33:26 65° 102° (ESE) 16:37:52 437.445
STARS 07 Dec 16:30:14 16:34:16 33° 97° (E) 16:38:16 437.465
AO-7 07 Dec 16:31:19 16:37:39 24° 270° (W) 16:44:03 29.400- 29.500
LilacSat-2 07 Dec 16:41:11 16:44:31 28° 67° (ENE) 16:47:51 437.200
HORYU 2 07 Dec 16:45:05 16:49:35 73° 257° (WSW) 16:54:04 437.375
Cosmos 2491 07 Dec 16:49:24 16:57:30 40° 66° (ENE) 17:05:32 435.465 / 435.565
PCSat 07 Dec 16:53:13 16:55:54 14° 14° (NNE) 16:58:35 145.827
O/OREOS (USA 219) 07 Dec 16:54:50 16:59:09 41° 304° (NW) 17:03:28 437.305
AUBIESAT-1 07 Dec 16:55:41 16:58:44 18° 308° (NW) 17:01:44 437.475
SWISSCUBE 07 Dec 16:56:39 16:58:37 12° 307° (NW) 17:00:34 437.505
BRITE-PL 07 Dec 16:57:09 17:01:25 50° 262° (W) 17:06:02 437.365/2234.400
BEESAT 07 Dec 17:00:26 17:02:28 13° 307° (NW) 17:04:31 436.000
HO-68 07 Dec 17:02:44 17:08:02 23° 49° (NE) 17:13:21 435.675
AIST 2 07 Dec 17:06:07 17:09:42 27° 243° (WSW) 17:13:16 435.215
CUTE-I 07 Dec 17:09:21 17:14:38 63° 70° (ENE) 17:19:57 437.470
M-CUBED/EXP-1 PRIME 07 Dec 17:10:16 17:12:18 13° 313° (NW) 17:14:20 437.505
YUBILEINY 07 Dec 17:23:59 17:30:03 22° 75° (ENE) 17:36:07 435.215
NOAA 15 07 Dec 17:26:19 17:31:34 88° 254° (WSW) 17:36:51 137.62
CANX-2 07 Dec 17:28:05 17:30:16 14° 58° (ENE) 17:32:27 2200.000
Cosmos 2504 07 Dec 17:29:42 17:30:23 10° 64° (ENE) 17:31:05 435.465 / 435.565
CINEMA 3 07 Dec 17:31:10 17:35:10 25° 62° (ENE) 17:39:13 145.822/145.860
NOAA 18 07 Dec 17:33:32 17:39:02 68° 70° (ENE) 17:44:35 137.9125
ISS 07 Dec 17:35:29 17:38:47 83° 341° (NNW) 17:42:07 145.825
Cubesat XI-IV 07 Dec 17:35:49 17:41:12 84° 256° (WSW) 17:46:37 437.490
RS-15 07 Dec 17:42:06 17:52:57 39° 253° (WSW) 18:03:32 29.354- 29.394
SEEDS 07 Dec 17:49:42 17:51:50 14° 59° (ENE) 17:53:59 437.485
MOZHAYETS 4 07 Dec 17:50:28 17:52:29 13° 305° (NW) 17:54:32
CUBESAT XI-V 07 Dec 17:56:04 18:00:35 50° 290° (WNW) 18:05:06 437.345
COMPASS 1 07 Dec 17:57:26 17:58:49 11° 57° (ENE) 18:00:12 437.405
GOMX 1 07 Dec 18:02:06 18:06:14 30° 267° (W) 18:10:40 467.674
DOVE 4 07 Dec 18:02:09 18:07:01 64° 260° (W) 18:12:11 437.250
KKS-1 07 Dec 18:06:29 18:09:32 18° 301° (WNW) 18:12:35 437.445
STARS 07 Dec 18:06:40 18:10:34 31° 295° (WNW) 18:14:27 437.465
LilacSat-2 07 Dec 18:15:29 18:18:48 27° 265° (W) 18:22:07 437.200
UWE-3 07 Dec 18:17:34 18:19:46 13° 57° (ENE) 18:21:55 435.000/436.395/437.385
PCSat 07 Dec 18:36:13 18:41:04 32° 39° (NE) 18:45:54 145.827
CUTE 1.7 + AOD 2 07 Dec 18:42:59 18:47:07 59° 72° (ENE) 18:51:16 437.475
Cosmos 2491 07 Dec 18:46:16 18:54:43 57° 269° (W) 19:03:08 435.465 / 435.565
HO-68 07 Dec 18:47:40 18:54:49 84° 72° (ENE) 19:02:04 435.675
CUTE-I 07 Dec 18:51:00 18:55:07 22° 269° (W) 18:59:15 437.470
ZACube-1 07 Dec 18:53:28 18:56:26 18° 60° (ENE) 18:59:22 437.345
SO-50 07 Dec 18:57:08 19:00:20 18° 112° (ESE) 19:03:30 436.795
AAUSAT CUBESAT 2 07 Dec 18:57:55 19:01:34 32° 67° (ENE) 19:05:16 437.432
FUNcube-1 07 Dec 18:59:55 19:03:00 19° 61° (ENE) 19:06:03 145.935
CANX-2 07 Dec 19:01:20 19:05:34 79° 258° (WSW) 19:09:47 2200.000
STRAND 1 07 Dec 19:03:04 19:07:45 35° 96° (E) 19:12:24 437.568
CINEMA 3 07 Dec 19:07:04 19:11:57 55° 261° (W) 19:16:55 145.822/145.860
NOAA 15 07 Dec 19:09:25 19:12:07 14° 273° (W) 19:14:49 137.62
ISS 07 Dec 19:12:13 19:15:29 54° 2° (N) 19:18:46 145.825
CUBEBUG 2 07 Dec 19:12:27 19:17:05 55° 71° (ENE) 19:21:40 437.445
Cosmos 2504 07 Dec 19:13:23 19:21:24 48° 87° (E) 19:29:46 435.465 / 435.565
NOAA 18 07 Dec 19:16:04 19:20:12 21° 269° (W) 19:24:23 137.9125
YUBILEINY 07 Dec 19:16:50 19:25:33 86° 99° (E) 19:34:23 435.215
Cubesat XI-IV 07 Dec 19:19:29 19:22:06 14° 274° (W) 19:24:44 437.490
SEEDS 07 Dec 19:22:49 19:26:58 78° 257° (WSW) 19:31:10 437.485
Oscar 11 07 Dec 19:27:16 19:30:59 29° 66° (ENE) 19:34:44 145.826/435.025
COMPASS 1 07 Dec 19:29:34 19:33:42 86° 75° (ENE) 19:37:51 437.405
DELFI C3 07 Dec 19:41:19 19:43:39 15° 60° (ENE) 19:45:59 145.870
AIST 1 07 Dec 19:47:19 19:51:39 82° 98° (E) 19:56:02
UWE-3 07 Dec 19:50:52 19:55:31 84° 75° (ENE) 20:00:07 435.000/436.395/437.385
CUSAT 1 07 Dec 19:59:18 20:02:52 79° 78° (ENE) 20:07:31 437.405
HUMSAT D 07 Dec 20:04:42 20:07:18 16° 60° (ENE) 20:09:53 437.325/437.525
PCSat 07 Dec 20:19:29 20:24:51 62° 240° (WSW) 20:30:11 145.827
CUTE 1.7 + AOD 2 07 Dec 20:20:45 20:23:21 16° 271° (W) 20:25:57 437.475
ZACube-1 07 Dec 20:27:44 20:32:16 68° 258° (WSW) 20:36:43 437.345
AAUSAT CUBESAT 2 07 Dec 20:33:34 20:37:05 27° 266° (W) 20:40:37 437.432
FUNcube-1 07 Dec 20:34:21 20:38:49 63° 259° (WSW) 20:43:15 145.935
SO-50 07 Dec 20:35:31 20:40:17 78° 312° (NW) 20:45:00 436.795
HO-68 07 Dec 20:38:04 20:43:25 22° 271° (W) 20:48:50 435.675
STRAND 1 07 Dec 20:42:17 20:46:57 37° 295° (WNW) 20:51:36 437.568
Cosmos 2491 07 Dec 20:46:28 20:49:29 12° 292° (WNW) 20:52:31 435.465 / 435.565
ISS 07 Dec 20:48:49 20:52:07 77° 203° (SSW) 20:55:26 145.825
CUBEBUG 2 07 Dec 20:50:25 20:54:00 21° 269° (W) 20:57:34 437.445
Oscar 11 07 Dec 21:03:08 21:07:04 33° 264° (W) 21:11:00 145.826/435.025
DANDE 07 Dec 21:05:06 21:07:53 76° 257° (WSW) 21:11:13 436.750
UNISAT 6 07 Dec 21:06:15 21:07:34 11° 86° (E) 21:08:52 437.425
Cosmos 2504 07 Dec 21:06:39 21:14:49 48° 290° (WNW) 21:23:24 435.465 / 435.565
COMPASS 1 07 Dec 21:08:56 21:09:52 11° 274° (W) 21:10:47 437.405
DELFI C3 07 Dec 21:14:09 21:18:01 61° 259° (W) 21:21:56 145.870
YUBILEINY 07 Dec 21:16:34 21:23:36 26° 302° (WNW) 21:30:43 435.215
AIST 1 07 Dec 21:27:51 21:29:54 13° 298° (WNW) 21:31:58
UWE-3 07 Dec 21:30:21 21:32:33 13° 273° (W) 21:34:46 435.000/436.395/437.385
PRISM 07 Dec 21:31:01 21:35:11 73° 102° (ESE) 21:39:21 437.425
TIGRISAT 07 Dec 21:34:04 21:37:19 20° 91° (E) 21:40:30 435.000
ANTELSAT 07 Dec 21:35:56 21:39:22 22° 92° (E) 21:42:43 437.575/2403.000
HUMSAT D 07 Dec 21:38:18 21:42:28 64° 258° (WSW) 21:46:37 437.325/437.525
AISAT 07 Dec 21:48:15 21:50:56 16° 58° (ENE) 21:53:38 437.250
ESTCUBE 1 07 Dec 21:48:51 21:52:45 30° 65° (ENE) 21:56:40 437.505/2401.250
PCSat 07 Dec 22:07:04 22:07:09 10° 260° (W) 22:07:13 145.827
CUBEBUG 1 07 Dec 22:07:31 22:11:17 29° 65° (ENE) 22:15:05 437.445
Cosmos 2499 07 Dec 22:14:33 22:16:44 11° 66° (ENE) 22:18:57 435.465 / 435.565
SO-50 07 Dec 22:17:51 22:21:28 21° 332° (NNW) 22:25:03 436.795
JAS-2 07 Dec 22:18:35 22:21:21 14° 88° (E) 22:24:09 435.910
VELOX 1 07 Dec 22:23:35 22:27:25 29° 65° (ENE) 22:31:17 145.980
ISS 07 Dec 22:25:54 22:28:14 18° 220° (SW) 22:30:33 145.825
DX 1 07 Dec 22:30:43 22:33:58 21° 61° (ENE) 22:37:15 434.975-435.025
UKube-1 07 Dec 22:34:12 22:37:04 18° 59° (ENE) 22:39:58 .
UNISAT 6 07 Dec 22:40:33 22:44:59 88° 284° (WNW) 22:49:19 437.425
SPROUT 07 Dec 22:41:27 22:45:10 29° 65° (ENE) 22:48:54 437.525
NANOSAT C BR1 07 Dec 22:52:12 22:54:43 15° 89° (E) 22:57:12 145.865
QB50P2 07 Dec 22:59:35 23:02:48 20° 92° (E) 23:05:59 145.880/145.840
POLYITAN 1 07 Dec 23:00:08 23:03:15 20° 92° (E) 23:06:20 437.675
Cosmos 2504 07 Dec 23:06:56 23:10:59 14° 317° (NW) 23:15:06 435.465 / 435.565
PRISM 07 Dec 23:07:38 23:09:58 15° 302° (WNW) 23:12:19 437.425
TIGRISAT 07 Dec 23:10:02 23:14:19 49° 290° (WNW) 23:18:29 435.000
ANTELSAT 07 Dec 23:12:06 23:16:20 45° 291° (WNW) 23:20:26 437.575/2403.000
QB50P1 07 Dec 23:12:10 23:15:44 25° 94° (E) 23:19:14 145.935-145.965
DUCHIFAT 1 07 Dec 23:12:41 23:16:02 22° 93° (E) 23:19:20 145.980
AISAT 07 Dec 23:22:25 23:26:51 76° 256° (WSW) 23:31:20 437.250
50 SAT 07 Dec 23:23:45 23:27:15 86° 249° (WSW) 23:30:48 437.505
ESTCUBE 1 07 Dec 23:25:24 23:29:30 35° 264° (W) 23:33:37 437.505/2401.250
POPSAT HIP 1 07 Dec 23:33:37 23:37:38 40° 98° (E) 23:41:37 437.405
O/OREOS (USA 219) 07 Dec 23:42:31 23:45:43 19° 45° (NE) 23:48:53 437.305
CUBEBUG 1 07 Dec 23:43:27 23:47:29 35° 263° (W) 23:51:34 437.445
GONETS M04 07 Dec 23:55:27 00:03:28 43° 86° (E) 00:11:29
TISAT 1 07 Dec 23:55:45 23:59:29 31° 66° (ENE) 00:03:14 437.305
Cosmos 2499 07 Dec 23:59:22 00:07:37 51° 88° (E) 00:16:05 435.465 / 435.565
VELOX 1 07 Dec 23:59:44 00:03:47 35° 263° (W) 00:07:54 145.980
BUGSAT 1 08 Dec 00:00:50 00:04:28 28° 95° (E) 00:08:02 437.445
SO-50 08 Dec 00:01:45 00:03:39 12° 357° (N) 00:05:32 436.795
JAS-2 08 Dec 00:01:59 00:07:12 85° 287° (WNW) 00:12:37 435.910
DX 1 08 Dec 00:05:35 00:09:50 52° 260° (W) 00:14:08 434.975-435.025
UKube-1 08 Dec 00:08:23 00:12:40 63° 258° (WSW) 00:17:00 .
SPROUT 08 Dec 00:17:04 00:21:01 34° 264° (W) 00:24:59 437.525
UNISAT 6 08 Dec 00:18:59 00:21:00 13° 304° (NW) 00:23:00 437.425
NANOSAT C BR1 08 Dec 00:26:40 00:30:52 62° 287° (WNW) 00:35:01 145.865
QB50P2 08 Dec 00:34:45 00:38:50 46° 290° (WNW) 00:42:53 145.880/145.840
POLYITAN 1 08 Dec 00:35:13 00:39:19 48° 290° (WNW) 00:43:22 437.675
AUBIESAT-1 08 Dec 00:35:55 00:39:33 27° 57° (ENE) 00:43:21 437.475
AO-85 08 Dec 00:40:49 00:43:40 16° 112° (ESE) 00:46:24 145.980
QB50P1 08 Dec 00:47:40 00:51:35 37° 293° (WNW) 00:55:29 145.935-145.965
DUCHIFAT 1 08 Dec 00:47:54 00:51:54 41° 291° (WNW) 00:55:50 145.980
M-CUBED/EXP-1 PRIME 08 Dec 00:49:32 00:53:32 40° 61° (ENE) 00:57:49 437.505
SWISSCUBE 08 Dec 00:50:21 00:54:28 30° 64° (ENE) 00:58:37 437.505
BEESAT 08 Dec 00:54:11 00:58:17 29° 63° (ENE) 01:02:24 436.000
PHONESAT 2.4 08 Dec 01:05:36 01:06:45 12° 173° (S) 01:07:54 2401.200-2431.200
POPSAT HIP 1 08 Dec 01:09:47 01:13:14 24° 296° (WNW) 01:16:39 437.405
Oscar 19 08 Dec 01:18:57 01:23:54 43° 98° (E) 01:28:50 437.125/150
O/OREOS (USA 219) 08 Dec 01:21:10 01:25:40 75° 246° (WSW) 01:30:07 437.305
ITUPSAT 1 08 Dec 01:22:42 01:27:18 50° 69° (ENE) 01:31:56 437.325
TISAT 1 08 Dec 01:31:17 01:35:05 31° 264° (W) 01:38:55 437.305
Gurwin Techsat 1B 08 Dec 01:32:39 01:37:22 31° 95° (E) 01:42:03 435.225
BUGSAT 1 08 Dec 01:36:04 01:39:52 33° 294° (WNW) 01:43:36 437.445
MOZHAYETS 4 08 Dec 01:41:28 01:44:56 22° 61° (ENE) 01:48:24
SO-50 08 Dec 01:42:56 01:45:59 17° 22° (NNE) 01:48:59 436.795
JAS-2 08 Dec 01:48:46 01:51:37 15° 307° (NW) 01:54:29 435.910
ITAMSAT 1 08 Dec 01:54:21 01:56:11 12° 85° (E) 01:58:01 435.822/435.867
KKS-1 08 Dec 01:56:41 01:59:13 15° 57° (ENE) 02:01:45 437.445
